Location: Pitton
(51.0667°N, 1.7000°W)
Time: 10:31:47
(UTC+00:00)

NOSS 0 Rocket - Pass Details

Date: 17 September 2019
Orbit: 935 x 955 km, 70.0° (Epoch: 13 October)

Event Time Altitude Azimuth Distance (km) Brightness Sun altitude
Rises 19:11:17 0° 328° (NNW) 3,619 7.8 -9.2°
Reaches altitude 10° 19:13:50 10° 331° (NNW) 2,674 7.0 -9.6°
Maximum altitude 19:20:03 72° 55° (NE) 999 4.0 -10.5°
Drops below altitude 10° 19:26:15 10° 140° (SE) 2,672 5.8 -11.4°
Enters shadow 19:26:28 - 141° (SE) 2,749 5.9 -11.5°
